Overview Statistics Trail Chart Weather Telemetry Raw packets
 

This is the latest recevied weather packets stored in our database for station/object KD4EED. If no packets are shown the sender has not sent any weather packets the latest 10 day(s).

<< 109 110 111 112 113 114 >>
Time Temp. Humidity Pressure Rain* Wind** Luminosity Snow
1787845711 26.67° C 73% 1009.3 hPa - - 94 W/m² -
1787845410 26.67° C 73% 1009.5 hPa - - 87 W/m² -
1787845107 26.67° C 73% 1009.6 hPa - - 73 W/m² -
1787844803 26.67° C 73% 1009.6 hPa - - 57 W/m² -
1787844501 26.11° C 74% 1009.8 hPa - - 61 W/m² -
1787844197 26.11° C 74% 1009.9 hPa - - 67 W/m² -
1787843895 26.11° C 74% 1010 hPa - - 69 W/m² -
1787843591 25.56° C 75% 1009.9 hPa - - 68 W/m² -
1787843287 25.56° C 76% 1009.8 hPa - - 70 W/m² -
1787842983 25.56° C 78% 1009.6 hPa - - 77 W/m² -
1787842683 25° C 79% 1009.6 hPa - - 74 W/m² -
1787842378 25° C 81% 1009.4 hPa - - 71 W/m² -
1787842078 24.44° C 82% 1009.6 hPa - - 68 W/m² -
1787841774 24.44° C 84% 1009.6 hPa - - 65 W/m² -
1787841469 23.89° C 85% 1009.6 hPa - - 52 W/m² -
1787841168 23.89° C 86% 1009.5 hPa - - 42 W/m² -
1787840863 23.89° C 87% 1009.8 hPa - - 37 W/m² -
1787840558 23.89° C 85% 1009.5 hPa - - 29 W/m² -
1787840253 23.89° C 85% 1009.4 hPa - - 20 W/m² -
1787839952 23.89° C 85% 1009.4 hPa - - 18 W/m² -
1787839649 23.89° C 86% 1009.2 hPa - - 13 W/m² -
1787839348 23.33° C 87% 1009.2 hPa - - 8 W/m² -
1787839048 23.33° C 87% 1009.2 hPa - - 9 W/m² -
1787838747 23.33° C 88% 1009.2 hPa - - 10 W/m² -
1787838447 23.33° C 88% 1008.9 hPa - - 10 W/m² -

* Rain since midnight (hover to see other rain measurements)
** Current wind speed in m/s (hover to see current wind gust speed)